[[{"header":{"parameterUnit":"m.s-1","parameterCategory":2,"la1":30.2991,"la2":30.254,"lo1":-89.0895,"lo2":-89.0444,"dy":0.0017,"dx":0.0017,"nx":28,"ny":28,"refTime":"2024-07-30T21:00:00:Z","depth":"0","parameterNumber":2,"parameterNumberName":"U-component_of_CURRENTS"},"data":[0,0,0,0,0,0,0,0,0,0,0,0,0,0,0,0,0,0,0,0,0,0,0,0,0,0,0,0,0,0,0,0,0,0,0,0,0,0,0,0,0,0,0,0,0,0,0,0,0,0,0,0,0,0,0,0,0,0,-0.1158,-0.1158,0,-0.1176,-0.1176,-0.1176,-0.1061,-0.1058,-0.1055,-0.1052,-0.0979,-0.098,-0.0981,0,0,0,0,0,0,0,0,0,0,0,0,0,-0.1035,-0.1037,-0.1158,-0.1158,-0.1159,-0.1176,-0.1176,-0.1176,-0.1061,-0.1058,-0.1054,-0.1051,-0.0979,-0.098,-0.0981,0,0,0,0,0,0,0,0,0,0,0,0,0,-0.1071,-0.1038,-0.1157,-0.1106,-0.1102,-0.1176,-0.1176,-0.1176,-0.1062,-0.1058,-0.1053,-0.1049,-0.0979,-0.098,-0.0981,-0.1077,0,0,-0.0985,-0.0985,0,0,0,0,0,0,0,0,-0.1069,-0.1075,-0.1113,-0.111,-0.1105,-0.1115,-0.1106,-0.1139,-0.1063,-0.1074,-0.1052,-0.1047,-0.1022,-0.1019,-0.1029,-0.1073,-0.107,-0.0985,-0.0986,-0.0986,-0.0986,0,0,0,0,0,0,0,-0.1066,-0.1074,-0.1161,-0.1114,-0.111,-0.1087,-0.1086,-0.1112,-0.1068,-0.1072,-0.1065,-0.1074,-0.1018,-0.1028,-0.1026,-0.1069,-0.0985,-0.0986,-0.0987,-0.0987,-0.1095,-0.1097,0,0,0,0,0,0,-0.1077,-0.1072,-0.1161,-0.1162,-0.108,-0.1093,-0.1092,-0.1113,-0.1069,-0.106,-0.1078,-0.1069,-0.1028,-0.1025,-0.1023,-0.1053,-0.0986,-0.0987,-0.0988,-0.1092,-0.1095,-0.1097,0,0,0,0,0,0,-0.1074,-0.1085,-0.116,-0.1119,-0.1127,-0.11,-0.1124,-0.1116,-0.1115,-0.1075,-0.1062,-0.1083,-0.1024,-0.1021,-0.104,-0.1052,-0.0988,-0.0989,-0.109,-0.1093,-0.1096,-0.1166,0,0,0,0,0,0,-0.1071,-0.1084,-0.11,-0.112,-0.113,-0.1198,-0.1129,-0.112,-0.1129,-0.1117,-0.1077,-0.1065,-0.1021,-0.1039,-0.1042,-0.1052,-0.099,-0.1087,-0.1091,-0.1095,-0.1161,-0.1171,-0.118,0,0,0,0,0,-0.1067,-0.1118,-0.1101,-0.1112,-0.1154,-0.1201,-0.1203,-0.1165,-0.1134,-0.1146,-0.1118,-0.1066,-0.1065,-0.1044,-0.1045,-0.1056,-0.1085,-0.109,-0.1095,-0.1156,-0.1169,-0.1179,0,0,0,0,0,0,-0.1094,-0.1112,-0.1094,-0.1152,-0.1168,-0.1181,-0.1198,-0.1186,-0.118,-0.1162,-0.1113,-0.1102,-0.1115,-0.11,-0.1077,-0.1101,-0.1061,-0.1067,-0.1107,-0.1118,-0.1128,-0.1114,-0.0991,0,0,0,0,0,-0.1108,-0.1129,-0.1154,-0.1197,-0.1209,-0.1209,-0.1223,-0.1206,-0.1208,-0.12,-0.117,-0.1149,-0.1148,-0.1141,-0.1134,-0.1174,-0.1116,-0.1179,-0.1188,-0.1196,-0.1189,-0.1156,-0.1161,-0.1113,-0.1113,-0.1113,0,0,-0.1132,-0.1144,-0.1158,-0.12,-0.1207,-0.1235,-0.1204,-0.1238,-0.1245,-0.12,-0.1197,-0.1187,-0.1168,-0.1184,-0.1189,-0.1165,-0.1172,-0.1202,-0.1209,-0.1197,-0.1162,-0.1166,-0.117,-0.1116,-0.1116,-0.1115,0,0,-0.1182,-0.1203,-0.1225,-0.1243,-0.1263,-0.1269,-0.1284,-0.13,-0.1283,-0.1313,-0.1266,-0.127,-0.1276,-0.125,-0.1244,-0.1318,-0.1226,-0.1316,-0.1349,-0.1319,-0.1321,-0.1323,-0.1214,-0.1206,-0.1318,-0.1318,-0.1318,0,-0.1203,-0.1234,-0.1244,-0.1269,-0.1282,-0.1287,-0.1316,-0.1326,-0.1338,-0.1332,-0.1311,-0.1315,-0.1302,-0.1311,-0.1327,-0.1334,-0.1278,-0.1303,-0.1328,-0.1329,-0.1329,-0.1217,-0.1207,-0.1322,-0.1321,-0.1321,-0.1321,0,-0.1254,-0.1277,-0.1303,-0.1316,-0.1342,-0.1377,-0.139,-0.1402,-0.1394,-0.1389,-0.1398,-0.1391,-0.1378,-0.1388,-0.1382,-0.1388,-0.1329,-0.1343,-0.129,-0.1337,-0.1217,-0.1205,-0.1327,-0.1326,-0.1325,-0.1324,0,0,-0.1291,-0.1326,-0.1328,-0.1321,-0.1365,-0.1384,-0.1419,-0.1438,-0.1416,-0.1448,-0.1422,-0.1464,-0.1447,-0.1441,-0.1431,-0.1419,-0.1371,-0.1389,-0.1386,-0.1264,-0.124,-0.0996,-0.0958,-0.1391,-0.1391,-0.139,-0.1138,0,-0.1313,-0.1347,-0.1369,-0.1395,-0.1408,-0.1427,-0.1439,-0.1455,-0.1448,-0.1422,-0.1444,-0.1409,-0.147,-0.1434,-0.1457,-0.138,-0.135,-0.1434,-0.1228,-0.122,-0.0984,-0.0941,-0.0909,-0.0665,-0.1126,-0.1124,-0.1122,0,-0.1325,-0.1347,-0.1375,-0.1382,-0.139,-0.141,-0.1399,-0.1412,-0.1405,-0.1388,-0.1405,-0.1382,-0.1378,-0.1407,-0.1341,-0.139,-0.1329,-0.1278,-0.1268,-0.1006,-0.0954,-0.0703,-0.0625,-0.0742,-0.1103,-0.1104,-0.1106,0,-0.1284,-0.1332,-0.1342,-0.1354,-0.1384,-0.1391,-0.1403,-0.14,-0.1342,-0.1342,-0.1261,-0.1312,-0.1223,-0.125,-0.1139,-0.1245,-0.0995,-0.1125,-0.0844,-0.0823,-0.0733,-0.0704,-0.0729,-0.1068,-0.1068,-0.1069,-0.107,0,-0.1269,-0.1268,-0.1318,-0.1322,-0.1293,-0.135,-0.1287,-0.1302,-0.1253,-0.1151,-0.1224,-0.1105,-0.1176,-0.1038,-0.1063,-0.0836,-0.0926,-0.0804,-0.0739,-0.0749,-0.0726,-0.0772,-0.0878,-0.1059,-0.1061,-0.1063,-0.1065,0,-0.1181,-0.1234,-0.1221,-0.1264,-0.1262,-0.1233,-0.1169,-0.1107,-0.1092,-0.0952,-0.0924,-0.087,-0.071,-0.068,-0.0596,-0.061,-0.049,-0.039,-0.0335,-0.0268,-0.0198,-0.0308,-0.0182,-0.0158,-0.0115,-0.0108,-0.0101,0,-0.1122,-0.1116,-0.113,-0.11,-0.111,-0.1069,-0.1015,-0.1014,-0.0932,-0.0783,-0.0691,-0.0486,-0.0345,-0.0077,-0.0034,0.0073,-0.011,0.0182,-0.0051,-0.0129,-0.021,-0.0331,-0.0334,0.0041,0.0048,0.0054,0.0059,0,-0.0983,-0.0991,-0.098,-0.0932,-0.0889,-0.0809,-0.0752,-0.0661,-0.063,-0.051,-0.0327,-0.0204,0.0078,0.0233,0.0459,0.0464,0.0109,0.031,0.0158,-0.0111,-0.0181,-0.0145,-0.0145,0.011,0.0105,0.0101,0.0098,0.0096,-0.0835,-0.0784,-0.0774,-0.0717,-0.0667,-0.057,-0.0492,-0.0426,-0.0282,-0.0142,-0.0064,0.009,0.0316,0.0609,0.0646,0.0688,0.0554,0.0541,0.0418,0.0307,0.0307,0.051,0.0879,0.0879,0.0878,0.0877,0.0877,0,-0.0642,-0.0614,-0.0552,-0.0494,-0.0411,-0.0434,-0.0317,-0.0257,-0.0113,-0.0001,0.0133,0.0353,0.057,0.0669,0.0818,0.0737,0.0581,0.0645,0.0336,0.0329,0.0448,0.0428,0.0803,0.0803,0.0803,0.0803,0.0803,0.0803,-0.0531,-0.0435,-0.0428,-0.0269,-0.0235,-0.0124,-0.0063,-0.0004,0.0058,0.021,0.0297,0.0385,0.0529,0.0592,0.0562,0.0544,0.0328,0.0373,0.0303,0.0189,0.0161,0.0135,0.0087,0.0384,0.0383,0.0169,0.0166,0.0164]},{"header":{"parameterUnit":"m.s-1","parameterCategory":2,"la1":30.2991,"la2":30.254,"lo1":-89.0895,"lo2":-89.0444,"dy":0.0017,"dx":0.0017,"nx":28,"ny":28,"refTime":"2024-07-30T21:00:00:Z","depth":"0","parameterNumber":3,"parameterNumberName":"V-component_of_CURRENTS"},"data":[0,0,0,0,0,0,0,0,0,0,0,0,0,0,0,0,0,0,0,0,0,0,0,0,0,0,0,0,0,0,0,0,0,0,0,0,0,0,0,0,0,0,0,0,0,0,0,0,0,0,0,0,0,0,0,0,0,0,-0.0368,-0.0368,0,-0.034,-0.034,-0.0339,-0.0294,-0.0293,-0.0293,-0.0292,-0.0248,-0.0248,-0.0247,0,0,0,0,0,0,0,0,0,0,0,0,0,-0.0266,-0.0269,-0.0368,-0.0368,-0.0368,-0.034,-0.034,-0.0339,-0.0294,-0.0293,-0.0292,-0.0291,-0.0248,-0.0248,-0.0247,0,0,0,0,0,0,0,0,0,0,0,0,0,-0.0281,-0.027,-0.0368,-0.0342,-0.034,-0.034,-0.034,-0.0339,-0.0294,-0.0293,-0.0292,-0.0291,-0.0248,-0.0248,-0.0247,-0.0266,0,0,-0.0245,-0.0245,0,0,0,0,0,0,0,0,-0.0281,-0.0285,-0.0346,-0.0344,-0.0341,-0.032,-0.0288,-0.0314,-0.0295,-0.0311,-0.0292,-0.029,-0.0272,-0.0269,-0.0266,-0.0264,-0.0262,-0.0245,-0.0245,-0.0244,-0.0244,0,0,0,0,0,0,0,-0.028,-0.0285,-0.0356,-0.0346,-0.0343,-0.0292,-0.0294,-0.0292,-0.0297,-0.0309,-0.0306,-0.0305,-0.027,-0.0267,-0.0265,-0.0262,-0.0245,-0.0244,-0.0244,-0.0244,-0.0232,-0.0232,0,0,0,0,0,0,-0.0293,-0.0286,-0.0357,-0.0356,-0.0308,-0.0296,-0.0297,-0.0327,-0.0298,-0.0292,-0.0306,-0.0303,-0.0268,-0.0265,-0.0263,-0.0261,-0.0244,-0.0244,-0.0243,-0.0232,-0.0232,-0.0232,0,0,0,0,0,0,-0.0291,-0.0301,-0.0358,-0.0318,-0.0322,-0.0299,-0.0333,-0.0327,-0.0321,-0.0295,-0.0289,-0.0304,-0.0267,-0.0264,-0.0255,-0.026,-0.0243,-0.0243,-0.0232,-0.0232,-0.0232,-0.0273,0,0,0,0,0,0,-0.0289,-0.0301,-0.0326,-0.032,-0.0325,-0.0367,-0.0334,-0.0328,-0.0322,-0.0318,-0.0292,-0.0286,-0.0266,-0.0256,-0.0254,-0.0259,-0.0242,-0.0232,-0.0232,-0.0232,-0.0271,-0.0274,-0.0277,0,0,0,0,0,-0.0286,-0.0337,-0.0329,-0.0337,-0.0362,-0.0368,-0.0366,-0.0343,-0.0323,-0.033,-0.0303,-0.0287,-0.0255,-0.0256,-0.0254,-0.0258,-0.0232,-0.0232,-0.0232,-0.027,-0.0274,-0.0277,0,0,0,0,0,0,-0.03,-0.0337,-0.0328,-0.0385,-0.0376,-0.036,-0.037,-0.0349,-0.0334,-0.0328,-0.0294,-0.0288,-0.0284,-0.0266,-0.0267,-0.0254,-0.0239,-0.0239,-0.0269,-0.0272,-0.0274,-0.0258,-0.0242,0,0,0,0,0,-0.0318,-0.0371,-0.037,-0.0412,-0.0413,-0.0389,-0.0387,-0.0371,-0.0356,-0.0348,-0.0326,-0.0302,-0.0285,-0.0274,-0.0264,-0.026,-0.0197,-0.0259,-0.0261,-0.0264,-0.0248,-0.0147,-0.0138,-0.0233,-0.0233,-0.0233,0,0,-0.0331,-0.036,-0.0386,-0.0418,-0.041,-0.0418,-0.0386,-0.0393,-0.039,-0.0348,-0.0342,-0.032,-0.0289,-0.0282,-0.0277,-0.0265,-0.0207,-0.0264,-0.0267,-0.0249,-0.0146,-0.0136,-0.0128,-0.0233,-0.0233,-0.0233,0,0,-0.0376,-0.0412,-0.0457,-0.0457,-0.0459,-0.0449,-0.0452,-0.0437,-0.0421,-0.0418,-0.0378,-0.0346,-0.0342,-0.0298,-0.0281,-0.0291,-0.0231,-0.03,-0.0294,-0.0197,-0.0187,-0.0178,-0.0097,-0.008,-0.0294,-0.0294,-0.0294,0,-0.0382,-0.0443,-0.0463,-0.0489,-0.0485,-0.0464,-0.0474,-0.0468,-0.0447,-0.0422,-0.0425,-0.0358,-0.0342,-0.0288,-0.0295,-0.0295,-0.0235,-0.0287,-0.0198,-0.0188,-0.0178,-0.0096,-0.0077,-0.0296,-0.0295,-0.0295,-0.0295,0,-0.0447,-0.048,-0.0505,-0.0536,-0.0537,-0.0548,-0.0533,-0.0527,-0.0509,-0.0479,-0.0432,-0.0393,-0.0334,-0.0338,-0.0326,-0.0249,-0.0229,-0.0219,-0.0187,-0.017,-0.0086,-0.0065,-0.0298,-0.0298,-0.0297,-0.0297,0,0,-0.0484,-0.0539,-0.0542,-0.0535,-0.0557,-0.0549,-0.0563,-0.0538,-0.0492,-0.0488,-0.0417,-0.0402,-0.0349,-0.0323,-0.0286,-0.0214,-0.011,-0.0194,-0.0187,-0.0108,0.0103,0.0077,0.0097,-0.0082,-0.0078,-0.0075,0.013,0,-0.0511,-0.0561,-0.0584,-0.059,-0.0596,-0.0582,-0.0568,-0.0541,-0.051,-0.0442,-0.0394,-0.0324,-0.0351,-0.0296,-0.0237,-0.0137,-0.0055,-0.0166,0.0072,0.0079,0.0058,0.012,0.0156,0.0339,0.0151,0.0154,0.0157,0,-0.0552,-0.0577,-0.0603,-0.0574,-0.0569,-0.0569,-0.0508,-0.0488,-0.0415,-0.038,-0.0319,-0.0267,-0.0176,-0.0187,-0.0013,-0.0082,0.001,0.008,0.009,0.0099,0.0092,0.0294,0.0385,0.0456,0.0189,0.0187,0.0184,0,-0.0543,-0.057,-0.0584,-0.0586,-0.057,-0.0556,-0.0528,-0.0466,-0.0398,-0.0319,-0.025,-0.0163,-0.0081,0.0025,0.0112,0.008,0.0315,0.03,0.0368,0.0367,0.0464,0.0465,0.066,0.046,0.0459,0.0459,0.0458,0,-0.0558,-0.0553,-0.0576,-0.0579,-0.0535,-0.0525,-0.0436,-0.0413,-0.0309,-0.0206,-0.0193,-0.0098,-0.002,0.0096,0.017,0.032,0.0368,0.0397,0.0432,0.0445,0.0442,0.0558,0.0562,0.0467,0.0465,0.0463,0.0462,0,-0.0534,-0.0566,-0.0558,-0.055,-0.0536,-0.0494,-0.0385,-0.0295,-0.0237,-0.0102,-0.0069,-0.0001,0.0117,0.0195,0.0378,0.0412,0.0613,0.0598,0.0586,0.0614,0.0707,0.0705,0.093,0.1016,0.0729,0.073,0.073,0,-0.0521,-0.053,-0.0528,-0.0502,-0.0498,-0.0425,-0.0348,-0.027,-0.017,-0.0041,0.0037,0.0144,0.0227,0.0433,0.0512,0.0657,0.0698,0.0775,0.0713,0.0744,0.077,0.0756,0.0812,0.0837,0.0839,0.084,0.0841,0,-0.0473,-0.0485,-0.0481,-0.0443,-0.0387,-0.0291,-0.0192,-0.0106,0.0006,0.0097,0.021,0.0273,0.0407,0.0529,0.0657,0.0743,0.0828,0.0801,0.0878,0.0909,0.0872,0.096,0.0649,0.0851,0.085,0.085,0.0849,0.0849,-0.0413,-0.0402,-0.0402,-0.0353,-0.0284,-0.0169,-0.0071,0.0043,0.0184,0.0329,0.0347,0.0448,0.0564,0.0723,0.0811,0.0966,0.0933,0.102,0.1031,0.1026,0.1061,0.0739,0.0931,0.093,0.093,0.0929,0.0929,0,-0.0327,-0.033,-0.0293,-0.0232,-0.0135,-0.0121,0.004,0.014,0.029,0.0402,0.05,0.0667,0.0815,0.0923,0.1102,0.1195,0.1241,0.124,0.1269,0.1331,0.1115,0.1067,0.1242,0.1242,0.1242,0.1242,0.1242,0.1242,-0.0278,-0.0244,-0.0244,-0.0103,-0.0053,0.0094,0.0182,0.0289,0.0388,0.0564,0.068,0.0778,0.0944,0.1142,0.1356,0.1406,0.1517,0.1473,0.1542,0.1396,0.1377,0.1358,0.1317,0.1542,0.1543,0.1789,0.1791,0.1792]}],[{"header":{"parameterUnit":"m.s-1","parameterCategory":2,"la1":30.2991,"la2":30.254,"lo1":-89.0895,"lo2":-89.0444,"dy":0.0017,"dx":0.0017,"nx":28,"ny":28,"refTime":"2024-07-30T21:00:00:Z","depth":"2","parameterNumber":2,"parameterNumberName":"U-component_of_CURRENTS"},"data":[0,0,0,0,0,0,0,0,0,0,0,0,0,0,0,0,0,0,0,0,0,0,0,0,0,0,0,0,0,0,0,0,0,0,0,0,0,0,0,0,0,0,0,0,0,0,0,0,0,0,0,0,0,0,0,0,0,0,-0.2755,-0.2755,0,-0.2812,-0.2813,-0.2814,-0.2771,-0.2769,-0.2767,-0.2765,-0.2705,-0.2705,-0.2706,0,0,0,0,0,0,0,0,0,0,0,0,0,-0.2595,-0.2599,-0.2755,-0.2755,-0.2756,-0.2812,-0.2814,-0.2815,-0.2772,-0.2769,-0.2766,-0.2764,-0.2705,-0.2705,-0.2706,0,0,0,0,0,0,0,0,0,0,0,0,0,-0.2664,-0.26,-0.2755,-0.2738,-0.2737,-0.2812,-0.2814,-0.2815,-0.2772,-0.2769,-0.2765,-0.2762,-0.2704,-0.2705,-0.2706,-0.2779,0,0,-0.2708,-0.2709,0,0,0,0,0,0,0,0,-0.266,-0.267,-0.274,-0.2739,-0.2738,-0.2778,-0.2735,-0.2796,-0.2773,-0.2763,-0.2765,-0.2761,-0.2718,-0.2718,-0.2743,-0.2776,-0.2773,-0.2708,-0.2709,-0.2709,-0.2709,0,0,0,0,0,0,0,-0.2655,-0.2667,-0.2782,-0.2741,-0.2739,-0.2723,-0.2729,-0.2747,-0.276,-0.2764,-0.276,-0.2761,-0.2717,-0.2743,-0.2741,-0.2772,-0.2708,-0.2709,-0.2709,-0.271,-0.2645,-0.2643,0,0,0,0,0,0,-0.2645,-0.2664,-0.278,-0.2783,-0.2685,-0.2728,-0.2736,-0.2772,-0.2762,-0.2757,-0.2764,-0.2758,-0.2743,-0.274,-0.2739,-0.268,-0.2709,-0.271,-0.271,-0.2647,-0.2644,-0.2642,0,0,0,0,0,0,-0.2643,-0.2657,-0.2778,-0.2718,-0.2732,-0.2734,-0.2775,-0.2774,-0.2774,-0.2763,-0.2755,-0.2759,-0.2741,-0.2738,-0.2727,-0.2682,-0.271,-0.2711,-0.265,-0.2646,-0.2643,-0.2654,0,0,0,0,0,0,-0.2639,-0.2657,-0.2674,-0.272,-0.2735,-0.28,-0.2778,-0.2778,-0.278,-0.2773,-0.2758,-0.275,-0.2738,-0.2726,-0.2728,-0.2683,-0.2711,-0.2652,-0.2648,-0.2644,-0.2656,-0.2651,-0.2647,0,0,0,0,0,-0.2633,-0.2691,-0.2675,-0.2688,-0.2762,-0.28,-0.2807,-0.2799,-0.2782,-0.2786,-0.277,-0.2749,-0.2698,-0.2728,-0.2729,-0.2684,-0.2654,-0.2649,-0.2644,-0.2658,-0.2652,-0.2647,0,0,0,0,0,0,-0.2643,-0.2693,-0.2676,-0.2748,-0.2751,-0.279,-0.2807,-0.2799,-0.2798,-0.279,-0.2765,-0.2758,-0.2715,-0.2706,-0.2739,-0.2644,-0.2656,-0.2651,-0.2665,-0.266,-0.2655,-0.2592,-0.2712,0,0,0,0,0,-0.265,-0.2696,-0.272,-0.2767,-0.2776,-0.2786,-0.2799,-0.2796,-0.2804,-0.28,-0.2786,-0.2752,-0.2707,-0.269,-0.2666,-0.2656,-0.2598,-0.2608,-0.2604,-0.2601,-0.2545,-0.2473,-0.2457,-0.2626,-0.2626,-0.2626,0,0,-0.2664,-0.2697,-0.272,-0.2768,-0.278,-0.2784,-0.2787,-0.2816,-0.2796,-0.2796,-0.2776,-0.2751,-0.27,-0.2662,-0.2639,-0.2647,-0.252,-0.2594,-0.2592,-0.2537,-0.2466,-0.245,-0.2435,-0.2622,-0.2623,-0.2624,0,0,-0.269,-0.2745,-0.2763,-0.2771,-0.2784,-0.28,-0.2799,-0.2826,-0.281,-0.2806,-0.2765,-0.2711,-0.2694,-0.2625,-0.2589,-0.2546,-0.25,-0.2532,-0.2465,-0.2398,-0.2384,-0.2371,-0.2273,-0.2251,-0.253,-0.253,-0.253,0,-0.2676,-0.2719,-0.277,-0.2771,-0.2764,-0.2796,-0.278,-0.2793,-0.2803,-0.276,-0.2785,-0.2674,-0.2656,-0.2538,-0.2509,-0.2532,-0.248,-0.2504,-0.2394,-0.2379,-0.2365,-0.2269,-0.2244,-0.253,-0.253,-0.253,-0.253,0,-0.2688,-0.2711,-0.2732,-0.2733,-0.2741,-0.2755,-0.2759,-0.2751,-0.2745,-0.2724,-0.263,-0.2616,-0.2515,-0.2512,-0.25,-0.2369,-0.2359,-0.2405,-0.2416,-0.2349,-0.2252,-0.2226,-0.253,-0.253,-0.253,-0.253,0,0,-0.2661,-0.2717,-0.2717,-0.2665,-0.2718,-0.2697,-0.2696,-0.2649,-0.2575,-0.2593,-0.2484,-0.2422,-0.239,-0.234,-0.2321,-0.227,-0.2147,-0.2289,-0.2285,-0.2202,-0.1966,-0.1871,-0.1834,-0.2192,-0.2188,-0.2184,-0.1938,0,-0.2619,-0.2598,-0.2657,-0.2597,-0.2564,-0.2592,-0.2558,-0.2522,-0.2508,-0.2432,-0.2392,-0.2296,-0.2333,-0.2268,-0.2224,-0.2177,-0.2078,-0.2206,-0.2029,-0.2021,-0.1956,-0.18,-0.1832,-0.1607,-0.1912,-0.1908,-0.1905,0,-0.258,-0.256,-0.2504,-0.2449,-0.2435,-0.2404,-0.2305,-0.2288,-0.223,-0.221,-0.2143,-0.2124,-0.202,-0.2084,-0.1933,-0.202,-0.1946,-0.1925,-0.1917,-0.1791,-0.1876,-0.172,-0.1548,-0.1861,-0.1865,-0.1868,-0.1871,0,-0.2459,-0.2442,-0.237,-0.2358,-0.2319,-0.2256,-0.2236,-0.2188,-0.2133,-0.2054,-0.1985,-0.192,-0.1831,-0.1793,-0.174,-0.1824,-0.1585,-0.1708,-0.1527,-0.1521,-0.1483,-0.1479,-0.1524,-0.1525,-0.1525,-0.1526,-0.1527,0,-0.2389,-0.2307,-0.2283,-0.2228,-0.2079,-0.2112,-0.1966,-0.1948,-0.1913,-0.1817,-0.1832,-0.1732,-0.175,-0.1646,-0.1651,-0.1477,-0.1494,-0.1429,-0.1423,-0.1486,-0.1486,-0.167,-0.169,-0.1517,-0.1519,-0.1521,-0.1522,0,-0.2238,-0.2265,-0.213,-0.2057,-0.2016,-0.1896,-0.1825,-0.1738,-0.1716,-0.1602,-0.1565,-0.1532,-0.1418,-0.14,-0.1306,-0.1288,-0.1199,-0.1113,-0.1162,-0.1163,-0.1206,-0.123,-0.09,-0.0894,-0.0889,-0.0885,-0.0881,0,-0.2142,-0.2064,-0.1957,-0.1884,-0.1836,-0.1696,-0.162,-0.1624,-0.1571,-0.1477,-0.1415,-0.1273,-0.1206,-0.1021,-0.0982,-0.0891,-0.0971,-0.0793,-0.0945,-0.1099,-0.1128,-0.116,-0.119,-0.0907,-0.0904,-0.0901,-0.0899,0,-0.1898,-0.1873,-0.1788,-0.1664,-0.1566,-0.1443,-0.1361,-0.1328,-0.1331,-0.1259,-0.1173,-0.1127,-0.0948,-0.089,-0.0731,-0.071,-0.0844,-0.0732,-0.0837,-0.1065,-0.1086,-0.1123,-0.1155,-0.0877,-0.0879,-0.0881,-0.0882,-0.0883,-0.1679,-0.1591,-0.1527,-0.1395,-0.1326,-0.1244,-0.1144,-0.1141,-0.1086,-0.102,-0.101,-0.0875,-0.0895,-0.0657,-0.0591,-0.0494,-0.06,-0.0626,-0.0642,-0.0659,-0.0708,-0.072,-0.0449,-0.0448,-0.0448,-0.0448,-0.0448,0,-0.144,-0.1376,-0.1261,-0.1178,-0.1116,-0.1081,-0.0997,-0.0945,-0.0928,-0.0846,-0.0785,-0.0646,-0.061,-0.0546,-0.0401,-0.0377,-0.045,-0.0339,-0.0508,-0.0533,-0.0554,-0.0606,-0.0314,-0.0312,-0.031,-0.0308,0,0,-0.1303,-0.1188,-0.1173,-0.1013,-0.0945,-0.0819,-0.0765,-0.0734,-0.067,-0.0599,-0.0479,-0.0487,-0.0515,-0.0371,-0.0418,-0.0327,-0.0398,-0.0286,-0.042,-0.0646,-0.0663,-0.077,-0.0882,0,0,0,0,0]},{"header":{"parameterUnit":"m.s-1","parameterCategory":2,"la1":30.2991,"la2":30.254,"lo1":-89.0895,"lo2":-89.0444,"dy":0.0017,"dx":0.0017,"nx":28,"ny":28,"refTime":"2024-07-30T21:00:00:Z","depth":"2","parameterNumber":3,"parameterNumberName":"V-component_of_CURRENTS"},"data":[0,0,0,0,0,0,0,0,0,0,0,0,0,0,0,0,0,0,0,0,0,0,0,0,0,0,0,0,0,0,0,0,0,0,0,0,0,0,0,0,0,0,0,0,0,0,0,0,0,0,0,0,0,0,0,0,0,0,0.0131,0.0133,0,0.037,0.0373,0.0376,0.0439,0.0437,0.0435,0.0433,0.061,0.0617,0.0623,0,0,0,0,0,0,0,0,0,0,0,0,0,0.0011,0.0012,0.013,0.0133,0.0135,0.0369,0.0373,0.0377,0.0439,0.0437,0.0434,0.0432,0.0608,0.0616,0.0624,0,0,0,0,0,0,0,0,0,0,0,0,0,0.0143,0.0012,0.013,0.019,0.0198,0.0368,0.0373,0.0378,0.044,0.0437,0.0434,0.0431,0.0605,0.0615,0.0625,0.0745,0,0,0.0655,0.0659,0,0,0,0,0,0,0,0,0.0135,0.0147,0.0179,0.0186,0.0195,0.0366,0.0396,0.0496,0.044,0.0354,0.0433,0.0429,0.0521,0.0538,0.0599,0.0754,0.0761,0.0656,0.0662,0.0666,0.0669,0,0,0,0,0,0,0,0.0125,0.0139,0.0231,0.0182,0.0191,0.0302,0.0316,0.0417,0.0455,0.0361,0.0365,0.0383,0.0525,0.0589,0.0603,0.0764,0.0655,0.0664,0.067,0.0674,0.0948,0.095,0,0,0,0,0,0,0.0073,0.0129,0.0223,0.0238,0.015,0.0305,0.0321,0.0319,0.0455,0.0472,0.0385,0.0385,0.0574,0.0591,0.0609,0.0642,0.0666,0.0675,0.0681,0.0947,0.0949,0.095,0,0,0,0,0,0,0.0069,0.0078,0.0214,0.0186,0.021,0.0307,0.0307,0.0325,0.0361,0.0473,0.0489,0.0397,0.0572,0.0595,0.0694,0.0653,0.068,0.0689,0.0945,0.0948,0.0949,0.0783,0,0,0,0,0,0,0.0064,0.0075,0.0062,0.0181,0.0209,0.0286,0.031,0.0332,0.0375,0.0377,0.049,0.0505,0.0572,0.0679,0.0704,0.0667,0.0696,0.0944,0.0946,0.0949,0.0787,0.0779,0.0772,0,0,0,0,0,0.0059,0.0051,0.006,0.0072,0.0185,0.0285,0.0311,0.0377,0.0378,0.0397,0.0484,0.05,0.0711,0.069,0.0719,0.0682,0.0943,0.0946,0.0949,0.079,0.078,0.0772,0,0,0,0,0,0,0.0,0.006,0.0071,0.0082,0.016,0.0292,0.0321,0.0365,0.0456,0.0454,0.0543,0.0568,0.0632,0.0707,0.068,0.0776,0.0821,0.083,0.069,0.0682,0.0675,0.0603,0.0705,0,0,0,0,0,-0.0023,-0.0023,0.0066,0.0074,0.0104,0.0208,0.0256,0.0306,0.04,0.0436,0.0521,0.0609,0.068,0.0715,0.081,0.088,0.0914,0.0874,0.0866,0.0859,0.0825,0.0854,0.0843,0.096,0.096,0.096,0,0,-0.004,-0.001,-0.0008,0.0061,0.0126,0.0188,0.023,0.0298,0.0344,0.0444,0.0531,0.0599,0.07,0.0766,0.0798,0.0811,0.0852,0.0863,0.0855,0.0825,0.0855,0.0843,0.0832,0.0962,0.0962,0.0962,0,0,-0.006,-0.0054,-0.0051,0.0007,0.0089,0.0164,0.0168,0.0294,0.0331,0.0437,0.0495,0.054,0.0692,0.0729,0.0769,0.0791,0.0819,0.0813,0.0704,0.0732,0.072,0.071,0.0747,0.0742,0.0798,0.0798,0.0798,0,-0.0089,-0.008,-0.0028,0.0004,0.0035,0.0138,0.0165,0.0249,0.0393,0.0397,0.044,0.0581,0.0667,0.0685,0.0682,0.0763,0.0785,0.0713,0.0713,0.0704,0.0697,0.0737,0.0733,0.079,0.0791,0.0792,0.0793,0,-0.0089,-0.0081,-0.0071,-0.0014,0.0036,0.0078,0.0179,0.0226,0.0279,0.0344,0.0378,0.0497,0.0546,0.0583,0.0638,0.0611,0.0647,0.0699,0.0709,0.0673,0.0721,0.0719,0.0779,0.0782,0.0784,0.0786,0,0,-0.017,-0.0094,-0.0093,-0.0091,0.0016,0.0052,0.0108,0.0161,0.0151,0.0268,0.0249,0.035,0.0359,0.0405,0.0463,0.0482,0.0462,0.054,0.0546,0.053,0.0511,0.0553,0.0557,0.0493,0.0491,0.049,0.0566,0,-0.0197,-0.0177,-0.012,-0.0097,-0.0087,-0.0009,0.0026,0.0083,0.0133,0.0162,0.0218,0.0265,0.031,0.0317,0.0324,0.0446,0.0448,0.0436,0.0589,0.0593,0.0596,0.0553,0.049,0.0552,0.0565,0.0565,0.0565,0,-0.0224,-0.0218,-0.0215,-0.0193,-0.0185,-0.015,-0.0151,-0.0093,-0.004,-0.0006,-0.0001,0.0073,0.0105,0.0174,0.0267,0.0248,0.0338,0.0431,0.0438,0.0524,0.0632,0.0596,0.055,0.0564,0.0564,0.0564,0.0564,0,-0.0332,-0.0292,-0.0314,-0.0295,-0.0233,-0.0253,-0.0219,-0.0176,-0.0134,-0.0112,-0.0081,-0.0063,0.0001,0.0074,0.0234,0.0248,0.0357,0.0427,0.0542,0.0548,0.0548,0.0555,0.0468,0.0468,0.0468,0.0468,0.0468,0,-0.0396,-0.0411,-0.0376,-0.0383,-0.0414,-0.0357,-0.0364,-0.0342,-0.0282,-0.0237,-0.0183,-0.015,-0.0022,0.0066,0.0182,0.034,0.0313,0.0495,0.0555,0.0496,0.0497,0.0557,0.0566,0.0471,0.047,0.047,0.0469,0,-0.0481,-0.0457,-0.0474,-0.0459,-0.0454,-0.0476,-0.0388,-0.0377,-0.0338,-0.0277,-0.0256,-0.0185,-0.009,0.0038,0.0196,0.0313,0.0453,0.0514,0.0435,0.0483,0.0641,0.0642,0.0658,0.066,0.0661,0.0662,0.0664,0,-0.0513,-0.0536,-0.0527,-0.0517,-0.0504,-0.0496,-0.046,-0.0405,-0.0362,-0.0291,-0.0261,-0.0181,-0.0125,0.0092,0.0297,0.0487,0.0472,0.0551,0.0577,0.0596,0.0653,0.0652,0.065,0.0524,0.0524,0.0524,0.0524,0,-0.0566,-0.0564,-0.0566,-0.055,-0.053,-0.0479,-0.0438,-0.042,-0.0343,-0.0311,-0.0273,-0.024,-0.0039,0.0116,0.0355,0.0464,0.0512,0.056,0.058,0.0491,0.0478,0.0532,0.0534,0.0523,0.0523,0.0523,0.0523,0.0523,-0.0582,-0.0593,-0.0576,-0.0555,-0.0527,-0.0477,-0.0425,-0.0399,-0.036,-0.0315,-0.0309,-0.0239,-0.013,0.0215,0.037,0.0573,0.0605,0.0623,0.0619,0.0617,0.0592,0.0583,0.0644,0.0645,0.0645,0.0646,0.0646,0,-0.0587,-0.0572,-0.0561,-0.0534,-0.0504,-0.046,-0.0393,-0.036,-0.0349,-0.0309,-0.0294,-0.019,-0.0046,0.0127,0.0478,0.0649,0.0631,0.0623,0.0546,0.0546,0.0546,0.0514,0.0547,0.0548,0.0548,0.0549,0,0,-0.0578,-0.0573,-0.0567,-0.0514,-0.0474,-0.0389,-0.0339,-0.0335,-0.0292,-0.0283,-0.021,-0.0225,-0.0021,0.0151,0.0296,0.0474,0.0485,0.0479,0.0538,0.043,0.0429,0.0517,0.0466,0,0,0,0,0]}],[{"header":{"parameterUnit":"m.s-1","parameterCategory":2,"la1":30.2991,"la2":30.254,"lo1":-89.0895,"lo2":-89.0444,"dy":0.0017,"dx":0.0017,"nx":28,"ny":28,"refTime":"2024-07-30T21:00:00:Z","depth":"4","parameterNumber":2,"parameterNumberName":"U-component_of_CURRENTS"},"data":[0,0,0,0,0,0,0,0,0,0,0,0,0,0,0,0,0,0,0,0,0,0,0,0,0,0,0,0,0,0,0,0,0,0,0,0,0,0,0,0,0,0,0,0,0,0,0,0,0,0,0,0,0,0,0,0,0,0,-0.1152,-0.1152,0,-0.1213,-0.1214,-0.1215,-0.1248,-0.1248,-0.1248,-0.1248,-0.1311,-0.1313,-0.1314,0,0,0,0,0,0,0,0,0,0,0,0,0,-0.1054,-0.1056,-0.1152,-0.1152,-0.1153,-0.1213,-0.1214,-0.1215,-0.1248,-0.1248,-0.1248,-0.1248,-0.1311,-0.1312,-0.1314,0,0,0,0,0,0,0,0,0,0,0,0,0,-0.1104,-0.1057,-0.1151,-0.1177,-0.118,-0.1213,-0.1214,-0.1215,-0.1248,-0.1248,-0.1248,-0.1248,-0.131,-0.1312,-0.1315,-0.1326,0,0,-0.1322,-0.1323,0,0,0,0,0,0,0,0,-0.1101,-0.1108,-0.1173,-0.1175,-0.1179,-0.1223,-0.1203,-0.1252,-0.1248,-0.1222,-0.1248,-0.1249,-0.1282,-0.1287,-0.1297,-0.1329,-0.1332,-0.1322,-0.1323,-0.1324,-0.1325,0,0,0,0,0,0,0,-0.1098,-0.1105,-0.1176,-0.1173,-0.1177,-0.1183,-0.119,-0.1212,-0.125,-0.1224,-0.1227,-0.1234,-0.1284,-0.1295,-0.1299,-0.1333,-0.1322,-0.1324,-0.1326,-0.1326,-0.1434,-0.1436,0,0,0,0,0,0,-0.1091,-0.1102,-0.1174,-0.1178,-0.114,-0.1184,-0.1193,-0.1209,-0.125,-0.1256,-0.1234,-0.1235,-0.1291,-0.1296,-0.1301,-0.1366,-0.1324,-0.1327,-0.1328,-0.1433,-0.1435,-0.1436,0,0,0,0,0,0,-0.1089,-0.1097,-0.1171,-0.1141,-0.115,-0.1186,-0.1204,-0.121,-0.1231,-0.1257,-0.1264,-0.125,-0.1291,-0.1298,-0.1343,-0.1367,-0.1328,-0.133,-0.1431,-0.1433,-0.1435,-0.1464,0,0,0,0,0,0,-0.1086,-0.1096,-0.1116,-0.1141,-0.1152,-0.1206,-0.1204,-0.1211,-0.1235,-0.1238,-0.1273,-0.1279,-0.1292,-0.1339,-0.1345,-0.1369,-0.1332,-0.1429,-0.1432,-0.1435,-0.1461,-0.1467,-0.1471,0,0,0,0,0,-0.1083,-0.1109,-0.1117,-0.1126,-0.1175,-0.1207,-0.1214,-0.1239,-0.1235,-0.1256,-0.1281,-0.1278,-0.1361,-0.1343,-0.1349,-0.1374,-0.1428,-0.1431,-0.1435,-0.1459,-0.1465,-0.1471,0,0,0,0,0,0,-0.1082,-0.1116,-0.1125,-0.1162,-0.1188,-0.1213,-0.1236,-0.1243,-0.1277,-0.1286,-0.1297,-0.1306,-0.1349,-0.1362,-0.1341,-0.1415,-0.1393,-0.1398,-0.141,-0.1416,-0.1421,-0.1406,-0.1334,0,0,0,0,0,-0.1089,-0.1121,-0.1145,-0.118,-0.119,-0.1211,-0.1229,-0.1248,-0.1275,-0.1291,-0.1314,-0.1343,-0.1366,-0.1391,-0.1414,-0.1459,-0.1449,-0.148,-0.1485,-0.149,-0.1483,-0.1501,-0.1507,-0.1447,-0.1447,-0.1447,0,0,-0.1103,-0.1123,-0.1144,-0.1182,-0.1202,-0.1223,-0.1223,-0.1261,-0.1284,-0.1292,-0.1339,-0.1358,-0.138,-0.1428,-0.1449,-0.1445,-0.1501,-0.1494,-0.1497,-0.1488,-0.1505,-0.1511,-0.1516,-0.1449,-0.1449,-0.1448,0,0,-0.1127,-0.1157,-0.1181,-0.1202,-0.1237,-0.125,-0.1259,-0.1293,-0.1317,-0.1366,-0.1369,-0.1402,-0.1455,-0.147,-0.1482,-0.153,-0.152,-0.1547,-0.1572,-0.159,-0.1595,-0.1599,-0.1583,-0.1586,-0.156,-0.156,-0.156,0,-0.114,-0.1168,-0.1194,-0.1215,-0.1232,-0.1257,-0.1277,-0.1306,-0.1356,-0.1377,-0.1391,-0.1457,-0.147,-0.1509,-0.1527,-0.154,-0.1541,-0.1544,-0.1595,-0.1599,-0.1603,-0.1586,-0.1588,-0.1561,-0.1561,-0.1561,-0.1561,0,-0.1163,-0.1195,-0.121,-0.1241,-0.1267,-0.1295,-0.1327,-0.1364,-0.1394,-0.142,-0.1477,-0.1508,-0.1541,-0.1558,-0.1558,-0.1594,-0.1583,-0.159,-0.1574,-0.161,-0.159,-0.1592,-0.1564,-0.1563,-0.1563,-0.1562,0,0,-0.1162,-0.1215,-0.1222,-0.1237,-0.1282,-0.1303,-0.135,-0.139,-0.1418,-0.1481,-0.1517,-0.1564,-0.1579,-0.1592,-0.1603,-0.1628,-0.1644,-0.1625,-0.1626,-0.1599,-0.1669,-0.1549,-0.1539,-0.167,-0.1671,-0.1671,-0.1641,0,-0.1166,-0.1201,-0.1233,-0.1272,-0.1283,-0.1329,-0.1365,-0.1415,-0.1461,-0.1507,-0.1549,-0.1588,-0.1592,-0.1615,-0.1639,-0.1644,-0.1653,-0.165,-0.1647,-0.1646,-0.1527,-0.1539,-0.1674,-0.1642,-0.1642,-0.1642,-0.1642,0,-0.1161,-0.1185,-0.1219,-0.1274,-0.1285,-0.132,-0.1378,-0.1419,-0.1487,-0.1528,-0.158,-0.1607,-0.1644,-0.1646,-0.1674,-0.1678,-0.1667,-0.1673,-0.1672,-0.1549,-0.1529,-0.1602,-0.1645,-0.1645,-0.1645,-0.1645,-0.1644,0,-0.1115,-0.1173,-0.1198,-0.1216,-0.1283,-0.1317,-0.1356,-0.1426,-0.1459,-0.1537,-0.1567,-0.1625,-0.1646,-0.167,-0.1675,-0.168,-0.1698,-0.1702,-0.1581,-0.1572,-0.1676,-0.1672,-0.1707,-0.1707,-0.1708,-0.1708,-0.1708,0,-0.1087,-0.1112,-0.1183,-0.1196,-0.1227,-0.1293,-0.134,-0.1391,-0.1463,-0.1491,-0.1566,-0.1583,-0.1657,-0.1675,-0.1681,-0.1626,-0.1698,-0.157,-0.1556,-0.1687,-0.1686,-0.1675,-0.1672,-0.1706,-0.1707,-0.1707,-0.1707,0,-0.103,-0.108,-0.1107,-0.1181,-0.1204,-0.1227,-0.131,-0.1342,-0.1422,-0.146,-0.1482,-0.1553,-0.1566,-0.1618,-0.1645,-0.1603,-0.1587,-0.1548,-0.1666,-0.1663,-0.1442,-0.1441,-0.1394,-0.1389,-0.1386,-0.1382,-0.138,0,-0.1002,-0.1012,-0.1076,-0.1087,-0.1124,-0.1173,-0.1205,-0.1303,-0.1336,-0.1419,-0.1422,-0.1462,-0.1496,-0.1424,-0.1501,-0.1494,-0.1482,-0.1458,-0.1457,-0.1418,-0.141,-0.1415,-0.1419,-0.1374,-0.1373,-0.1372,-0.1371,0,-0.0942,-0.0974,-0.0994,-0.1011,-0.1045,-0.1073,-0.1131,-0.1141,-0.1246,-0.1329,-0.1304,-0.1303,-0.1307,-0.1325,-0.1332,-0.1334,-0.1472,-0.1418,-0.1426,-0.1425,-0.1393,-0.139,-0.1399,-0.1358,-0.136,-0.1361,-0.1362,0,-0.0895,-0.0887,-0.0916,-0.092,-0.0949,-0.0952,-0.1002,-0.103,-0.1067,-0.1172,-0.1154,-0.1204,-0.1271,-0.124,-0.1253,-0.1242,-0.122,-0.1183,-0.1202,-0.1218,-0.118,-0.1115,-0.0969,0,0,0,0,0,-0.0844,-0.0825,-0.0823,-0.0819,-0.0841,-0.0859,-0.0939,-0.1001,-0.1103,-0.1042,-0.1094,-0.1088,-0.1077,-0.1109,-0.1061,-0.1193,-0.1244,-0.1135,-0.1216,-0.1285,-0.13,-0.1276,0,0,0,0,0,0,-0.0807,-0.0807,-0.0792,-0.0728,-0.0705,-0.0726,-0.077,-0.0849,-0.0828,-0.0929,-0.0925,-0.0997,-0.1009,-0.1068,-0.1023,-0.1038,-0.1062,-0.1178,-0.1175,-0.1276,-0.129,-0.1302,-0.1283,0,0,0,0,0]},{"header":{"parameterUnit":"m.s-1","parameterCategory":2,"la1":30.2991,"la2":30.254,"lo1":-89.0895,"lo2":-89.0444,"dy":0.0017,"dx":0.0017,"nx":28,"ny":28,"refTime":"2024-07-30T21:00:00:Z","depth":"4","parameterNumber":3,"parameterNumberName":"V-component_of_CURRENTS"},"data":[0,0,0,0,0,0,0,0,0,0,0,0,0,0,0,0,0,0,0,0,0,0,0,0,0,0,0,0,0,0,0,0,0,0,0,0,0,0,0,0,0,0,0,0,0,0,0,0,0,0,0,0,0,0,0,0,0,0,-0.0107,-0.0107,0,-0.0101,-0.0101,-0.0101,-0.0079,-0.0078,-0.0078,-0.0077,-0.0035,-0.0035,-0.0034,0,0,0,0,0,0,0,0,0,0,0,0,0,-0.0123,-0.0123,-0.0107,-0.0107,-0.0106,-0.0101,-0.0101,-0.0102,-0.0079,-0.0078,-0.0077,-0.0076,-0.0035,-0.0035,-0.0034,0,0,0,0,0,0,0,0,0,0,0,0,0,-0.0119,-0.0123,-0.0107,-0.0093,-0.0091,-0.0101,-0.0101,-0.0102,-0.0079,-0.0078,-0.0077,-0.0076,-0.0035,-0.0035,-0.0034,-0.0054,0,0,-0.0032,-0.0032,0,0,0,0,0,0,0,0,-0.012,-0.0119,-0.0095,-0.0094,-0.0092,-0.0087,-0.0092,-0.0083,-0.008,-0.0087,-0.0077,-0.0075,-0.0048,-0.0047,-0.0053,-0.0052,-0.005,-0.0032,-0.0032,-0.0032,-0.0032,0,0,0,0,0,0,0,-0.012,-0.0119,-0.0108,-0.0095,-0.0093,-0.0094,-0.0093,-0.009,-0.0076,-0.0086,-0.0084,-0.0079,-0.0047,-0.0053,-0.0051,-0.005,-0.0032,-0.0032,-0.0032,-0.0031,-0.0044,-0.0044,0,0,0,0,0,0,-0.0115,-0.012,-0.0108,-0.0107,-0.01,-0.0095,-0.0093,-0.0092,-0.0076,-0.0072,-0.008,-0.0078,-0.0055,-0.0052,-0.005,-0.0058,-0.0032,-0.0031,-0.0031,-0.0043,-0.0044,-0.0044,0,0,0,0,0,0,-0.0116,-0.0114,-0.0108,-0.0111,-0.011,-0.0095,-0.0095,-0.0093,-0.0095,-0.0072,-0.0067,-0.0083,-0.0054,-0.005,-0.0048,-0.0056,-0.0031,-0.003,-0.0042,-0.0043,-0.0044,-0.0083,0,0,0,0,0,0,-0.0116,-0.0115,-0.0122,-0.0111,-0.0109,-0.0115,-0.0096,-0.0093,-0.0092,-0.0089,-0.0073,-0.0068,-0.0053,-0.0049,-0.0047,-0.0055,-0.003,-0.0041,-0.0043,-0.0044,-0.0081,-0.0085,-0.0089,0,0,0,0,0,-0.0117,-0.0123,-0.0122,-0.0121,-0.0116,-0.0115,-0.0115,-0.0103,-0.0093,-0.01,-0.0088,-0.0068,-0.0055,-0.0049,-0.0047,-0.0055,-0.0041,-0.0042,-0.0044,-0.0079,-0.0084,-0.0089,0,0,0,0,0,0,-0.0129,-0.0121,-0.0119,-0.0122,-0.0121,-0.011,-0.0113,-0.0107,-0.0106,-0.0103,-0.008,-0.0075,-0.0082,-0.0063,-0.0057,-0.0062,-0.0044,-0.0045,-0.0072,-0.0077,-0.0081,-0.0063,-0.003,0,0,0,0,0,-0.0137,-0.0141,-0.0133,-0.0136,-0.0136,-0.0129,-0.0129,-0.0124,-0.0116,-0.0114,-0.01,-0.0088,-0.0089,-0.0077,-0.0079,-0.0078,-0.004,-0.0081,-0.0085,-0.0088,-0.0073,-0.002,-0.0017,-0.0049,-0.0049,-0.0049,0,0,-0.0141,-0.0138,-0.0139,-0.014,-0.0137,-0.0149,-0.0126,-0.0129,-0.0137,-0.011,-0.0115,-0.011,-0.0096,-0.0101,-0.01,-0.0082,-0.0065,-0.009,-0.0093,-0.0076,-0.0021,-0.0017,-0.0014,-0.005,-0.005,-0.005,0,0,-0.0156,-0.015,-0.0165,-0.0167,-0.0169,-0.0165,-0.0166,-0.0161,-0.0155,-0.0164,-0.015,-0.0139,-0.0141,-0.0122,-0.0116,-0.014,-0.0099,-0.015,-0.0141,-0.0091,-0.0087,-0.0083,-0.005,-0.0043,-0.0138,-0.0138,-0.0138,0,-0.0167,-0.0181,-0.0168,-0.0186,-0.019,-0.0173,-0.0193,-0.0188,-0.0183,-0.0177,-0.0169,-0.0161,-0.0146,-0.0138,-0.0143,-0.0146,-0.0117,-0.0125,-0.0093,-0.0089,-0.0084,-0.0051,-0.0043,-0.014,-0.014,-0.0139,-0.0139,0,-0.0195,-0.0211,-0.0216,-0.0234,-0.0238,-0.0248,-0.024,-0.0239,-0.023,-0.0221,-0.0215,-0.0193,-0.0178,-0.0179,-0.0166,-0.0135,-0.0127,-0.0116,-0.0077,-0.0082,-0.0049,-0.0039,-0.0143,-0.0142,-0.0141,-0.0141,0,0,-0.0215,-0.0235,-0.024,-0.0262,-0.0265,-0.0275,-0.0276,-0.0274,-0.0279,-0.0258,-0.0255,-0.0234,-0.021,-0.02,-0.0181,-0.0125,-0.0073,-0.0102,-0.0098,-0.0063,0.003,0.0014,0.0024,-0.0054,-0.0052,-0.0051,0.0033,0,-0.0247,-0.0291,-0.0287,-0.0329,-0.0353,-0.0334,-0.034,-0.0333,-0.0319,-0.0313,-0.0265,-0.0266,-0.0223,-0.0223,-0.0158,-0.011,-0.0046,-0.0097,0.0025,0.0028,0.0022,0.0035,-0.0045,0.004,0.0042,0.0044,0.0045,0,-0.0286,-0.0311,-0.0355,-0.0386,-0.0393,-0.0411,-0.0416,-0.0419,-0.039,-0.0377,-0.034,-0.0316,-0.0251,-0.0215,-0.0081,-0.0118,-0.0037,0.0019,0.0023,0.0037,0.0032,0.0051,0.0063,0.0062,0.0061,0.0059,0.0058,0,-0.032,-0.0362,-0.04,-0.0411,-0.0436,-0.0448,-0.0454,-0.0439,-0.0443,-0.0417,-0.0418,-0.034,-0.0315,-0.0192,-0.0078,-0.0076,0.0069,0.0083,0.0152,0.0151,0.0158,0.0153,0.0204,0.0204,0.0204,0.0203,0.0203,0,-0.0358,-0.0396,-0.0424,-0.0448,-0.0495,-0.0492,-0.0526,-0.0517,-0.0506,-0.0512,-0.0453,-0.044,-0.0303,-0.0214,-0.009,0.0053,0.0066,0.0165,0.0181,0.0134,0.0126,0.0164,0.0158,0.0206,0.0206,0.0205,0.0205,0,-0.0395,-0.0411,-0.0466,-0.0501,-0.0517,-0.0549,-0.0579,-0.0595,-0.0579,-0.0583,-0.0578,-0.0509,-0.0389,-0.0252,-0.0073,0.0021,0.0163,0.0215,0.0138,0.0146,0.0216,0.0207,0.0307,0.0307,0.0308,0.0308,0.0308,0,-0.0419,-0.0449,-0.0507,-0.054,-0.0561,-0.0605,-0.063,-0.0631,-0.0638,-0.0619,-0.0617,-0.0533,-0.0464,-0.0233,-0.0081,0.0144,0.0183,0.0245,0.0262,0.0226,0.0231,0.0222,0.0213,0.0309,0.0309,0.0309,0.0309,0,-0.0462,-0.0481,-0.0519,-0.0581,-0.0625,-0.0672,-0.0702,-0.0713,-0.0701,-0.0697,-0.0644,-0.0537,-0.041,-0.0234,-0.0073,0.0095,0.0195,0.0249,0.025,0.0267,0.0229,0.0232,0.0222,0.031,0.031,0.031,0.031,0,-0.049,-0.0523,-0.0564,-0.0615,-0.0674,-0.0712,-0.073,-0.0727,-0.073,-0.0693,-0.0678,-0.0544,-0.0471,-0.0258,-0.0103,0.0047,0.0103,0.0154,0.0161,0.0162,0.0095,0.0023,0.0066,0,0,0,0,0,-0.0513,-0.0542,-0.0594,-0.0651,-0.0705,-0.0732,-0.0763,-0.0765,-0.0756,-0.0719,-0.0694,-0.0569,-0.0356,-0.0273,-0.0119,-0.0082,0.013,0.0103,0.0193,0.0316,0.0315,0.0259,0,0,0,0,0,0,-0.0533,-0.0579,-0.0594,-0.066,-0.0699,-0.0755,-0.0772,-0.0768,-0.0734,-0.0711,-0.0597,-0.054,-0.0329,-0.0445,-0.0121,-0.0078,-0.0001,0.0203,0.0206,0.0317,0.0315,0.0314,0.0257,0,0,0,0,0]}]]